QPF
0.03 0.03 0.03 0.02 0.02 0.02 0.02 0.03 0.03 0.02 0.04 0.04 0.02 0.02 0.02 0.03 0.02 0.01 0.02 0.02 0.02 0.03 0.04 0.03 0.03 0.04 0.05 0.06 0.07 0.07 0.05 0.04 0.03 0.04 0.03 0.03 0.03 0.03 0.03 0.03 0.03 0.06 0.07 0.07
0.04 0.03 0.03 0.01 0.01 0.01 0.01 0.03 0.03 0.02 0.05 0.04 0.02 0.02 0.03 0.04 0.03 0.02 0.03 0.04 0.02 0.03 0.04 0.04 0.03 0.03 0.04 0.04 0.05 0.06 0.06 0.04 0.04 0.04 0.03 0.03 0.03 0.04 0.05 0.05 0.05 0.05 0.06 0.05
0.03 0.02 0.02 0.03 0.02 0.02 0.02 0.02 0.03 0.03 0.06 0.04 0.03 0.03 0.03 0.03 0.03 0.03 0.06 0.04 0.03 0.04 0.06 0.06 0.06 0.04 0.04 0.04 0.04 0.06 0.07 0.04 0.03 0.04 0.04 0.03 0.02 0.03 0.04 0.05 0.05 0.05 0.05 0.04
0.02 0.03 0.03 0.04 0.02 0.02 0.03 0.03 0.02 0.03 0.05 0.04 0.03 0.02 0.03 0.03 0.03 0.04 0.06 0.06 0.05 0.06 0.07 0.08 0.06 0.05 0.03 0.03 0.03 0.05 0.06 0.05 0.04 0.04 0.04 0.03 0.03 0.03 0.04 0.05 0.06 0.06 0.05 0.04
0.02 0.04 0.05 0.05 0.04 0.03 0.05 0.05 0.03 0.03 0.04 0.03 0.02 0.02 0.03 0.04 0.04 0.04 0.06 0.06 0.05 0.05 0.07 0.08 0.06 0.04 0.02 0.02 0.03 0.04 0.04 0.03 0.03 0.03 0.03 0.03 0.03 0.04 0.04 0.05 0.06 0.06 0.06 0.05
0.02 0.04 0.06 0.07 0.04 0.02 0.04 0.05 0.04 0.03 0.04 0.04 0.03 0.05 0.04 0.03 0.02 0.02 0.02 0.04 0.04 0.03 0.04 0.06 0.06 0.04 0.03 0.03 0.03 0.05 0.05 0.04 0.03 0.02 0.02 0.03 0.05 0.05 0.05 0.05 0.05 0.07 0.08 0.06
0.05 0.06 0.06 0.03 0.01 0.01 0.04 0.05 0.04 0.03 0.02 0.02 0.03 0.03 0.03 0.03 0.03 0.03 0.04 0.06 0.07 0.06 0.07 0.06 0.05 0.04 0.04 0.04 0.04 0.05 0.06 0.05 0.04 0.02 0.02 0.02 0.03 0.03 0.03 0.04 0.04 0.05 0.06 0.06
0.06 0.07 0.06 0.02 0.01 0.03 0.04 0.03 0.02 0.02 0.02 0.02 0.02 0.03 0.04 0.05 0.06 0.06 0.05 0.08 0.10 0.09 0.08 0.06 0.05 0.04 0.07 0.09 0.06 0.06 0.07 0.07 0.06 0.03 0.02 0.01 0.02 0.02 0.02 0.03 0.03 0.03 0.03 0.05
0.06 0.07 0.04 0.01 0.01 0.02 0.03 0.03 0.03 0.04 0.03 0.03 0.02 0.02 0.03 0.03 0.03 0.03 0.03 0.05 0.08 0.08 0.08 0.08 0.06 0.05 0.07 0.08 0.07 0.06 0.07 0.07 0.05 0.03 0.02 0.02 0.02 0.02 0.02 0.02 0.02 0.02 0.03 0.03
0.05 0.04 0.03 0.01 0.01 0.02 0.02 0.03 0.06 0.07 0.05 0.03 0.02 0.02 0.03 0.03 0.03 0.04 0.04 0.05 0.08 0.07 0.08 0.08 0.06 0.06 0.06 0.06 0.06 0.06 0.06 0.07 0.06 0.04 0.03 0.03 0.02 0.02 0.02 0.02 0.01 0.01 0.01 0.01
0.05 0.04 0.04 0.02 0.01 0.02 0.04 0.07 0.12 0.12 0.07 0.04 0.03 0.03 0.03 0.03 0.03 0.04 0.06 0.07 0.08 0.07 0.06 0.07 0.07 0.07 0.06 0.05 0.05 0.06 0.06 0.06 0.07 0.05 0.03 0.03 0.02 0.01 0.01 0.01 0.01 0.01 0.01 0.01
0.06 0.04 0.04 0.03 0.03 0.05 0.08 0.11 0.14 0.12 0.08 0.05 0.04 0.04 0.04 0.05 0.04 0.05 0.06 0.08 0.08 0.05 0.05 0.05 0.06 0.07 0.06 0.05 0.05 0.06 0.07 0.06 0.05 0.05 0.04 0.03 0.03 0.02 0.01 0.01 0.01 0.00 0.01 0.00
0.04 0.03 0.03 0.03 0.04 0.06 0.08 0.09 0.11 0.12 0.12 0.09 0.07 0.06 0.07 0.05 0.05 0.07 0.07 0.07 0.06 0.05 0.04 0.05 0.05 0.06 0.05 0.04 0.05 0.06 0.08 0.07 0.04 0.03 0.03 0.03 0.03 0.03 0.02 0.01 0.01 0.01 0.01 0.00
0.03 0.04 0.04 0.04 0.05 0.06 0.06 0.06 0.09 0.12 0.12 0.08 0.08 0.07 0.06 0.05 0.05 0.06 0.07 0.06 0.05 0.05 0.04 0.03 0.04 0.04 0.04 0.05 0.05 0.05 0.07 0.06 0.03 0.02 0.02 0.02 0.02 0.03 0.03 0.03 0.01 0.01 0.01 0.01
0.04 0.04 0.04 0.03 0.03 0.04 0.04 0.03 0.04 0.07 0.09 0.07 0.05 0.05 0.04 0.04 0.04 0.05 0.06 0.06 0.04 0.04 0.03 0.03 0.03 0.04 0.05 0.05 0.04 0.03 0.04 0.05 0.03 0.02 0.01 0.01 0.01 0.01 0.02 0.03 0.02 0.01 0.01 0.01
0.03 0.02 0.02 0.04 0.04 0.03 0.03 0.03 0.03 0.07 0.10 0.08 0.05 0.04 0.04 0.03 0.04 0.05 0.06 0.06 0.04 0.03 0.03 0.03 0.03 0.03 0.04 0.04 0.03 0.03 0.03 0.04 0.05 0.04 0.02 0.01 0.01 0.01 0.01 0.01 0.02 0.01 0.01 0.01
0.03 0.03 0.03 0.04 0.04 0.04 0.06 0.05 0.04 0.08 0.11 0.10 0.08 0.06 0.05 0.05 0.05 0.05 0.06 0.05 0.03 0.03 0.02 0.03 0.03 0.04 0.05 0.05 0.03 0.02 0.03 0.05 0.05 0.02 0.01 0.01 0.01 0.01 0.01 0.01 0.01 0.01 0.00 0.00
0.04 0.03 0.03 0.04 0.04 0.04 0.04 0.03 0.03 0.05 0.10 0.11 0.09 0.08 0.08 0.08 0.07 0.06 0.05 0.03 0.03 0.02 0.02 0.02 0.03 0.04 0.04 0.05 0.04 0.03 0.03 0.03 0.03 0.01 0.01 0.01 0.01 0.01 0.01 0.01 0.01 0.00 0.00 0.00
0.03 0.02 0.03 0.03 0.04 0.04 0.05 0.05 0.04 0.02 0.04 0.08 0.08 0.07 0.07 0.07 0.06 0.06 0.05 0.03 0.03 0.03 0.02 0.02 0.02 0.03 0.04 0.06 0.04 0.02 0.02 0.02 0.02 0.02 0.01 0.01 0.01 0.01 0.01 0.02 0.01 0.01 0.00 0.00
0.03 0.02 0.03 0.03 0.02 0.03 0.03 0.03 0.03 0.02 0.02 0.04 0.06 0.06 0.05 0.06 0.06 0.05 0.05 0.04 0.04 0.03 0.03 0.02 0.01 0.02 0.03 0.04 0.03 0.02 0.02 0.01 0.01 0.01 0.01 0.01 0.01 0.02 0.01 0.02 0.02 0.01 0.01 0.00
0.01 0.01 0.02 0.02 0.02 0.02 0.02 0.02 0.02 0.02 0.02 0.03 0.05 0.05 0.06 0.06 0.05 0.04 0.05 0.05 0.05 0.05 0.04 0.03 0.02 0.03 0.04 0.04 0.03 0.02 0.02 0.02 0.02 0.01 0.01 0.01 0.01 0.01 0.01 0.01 0.02 0.02 0.02 0.01
0.01 0.01 0.02 0.02 0.03 0.02 0.02 0.01 0.02 0.02 0.02 0.02 0.03 0.03 0.05 0.06 0.05 0.04 0.04 0.04 0.04 0.04 0.05 0.04 0.04 0.05 0.04 0.03 0.02 0.02 0.01 0.02 0.01 0.01 0.01 0.01 0.00 0.00 0.01 0.01 0.01 0.01 0.01 0.02
0.03 0.02 0.02 0.03 0.03 0.02 0.02 0.02 0.02 0.02 0.02 0.02 0.03 0.05 0.05 0.05 0.05 0.04 0.04 0.03 0.02 0.03 0.04 0.06 0.07 0.06 0.05 0.03 0.03 0.02 0.02 0.01 0.01 0.01 0.01 0.01 0.00 0.01 0.01 0.01 0.00 0.01 0.01 0.02
0.03 0.03 0.03 0.03 0.03 0.03 0.03 0.02 0.02 0.01 0.02 0.02 0.03 0.05 0.05 0.04 0.03 0.03 0.03 0.03 0.03 0.03 0.04 0.05 0.05 0.05 0.06 0.04 0.04 0.03 0.03 0.02 0.02 0.01 0.01 0.01 0.01 0.01 0.01 0.01 0.01 0.01 0.02 0.02
0.04 0.03 0.03 0.03 0.03 0.03 0.03 0.03 0.03 0.03 0.03 0.03 0.04 0.04 0.03 0.02 0.02 0.02 0.02 0.02 0.03 0.03 0.03 0.04 0.03 0.03 0.04 0.04 0.05 0.04 0.03 0.03 0.02 0.02 0.02 0.02 0.02 0.02 0.02 0.03 0.03 0.03 0.03 0.03
0.06 0.04 0.03 0.03 0.03 0.03 0.03 0.03 0.03 0.03 0.03 0.04 0.04 0.04 0.03 0.02 0.02 0.02 0.02 0.02 0.02 0.02 0.03 0.03 0.02 0.02 0.03 0.03 0.04 0.04 0.03 0.02 0.02 0.03 0.03 0.02 0.03 0.03 0.04 0.04 0.04 0.04 0.05 0.05
0.04 0.04 0.03 0.04 0.03 0.03 0.02 0.02 0.03 0.03 0.03 0.03 0.03 0.02 0.02 0.02 0.01 0.01 0.01 0.02 0.03 0.02 0.02 0.02 0.02 0.02 0.03 0.03 0.03 0.03 0.02 0.03 0.03 0.03 0.03 0.02 0.03 0.04 0.03 0.03 0.04 0.04 0.04 0.04
MSLP
1004.96 1005.02 1004.90 1004.58 1004.06 1003.37 1002.55 1001.68 1000.82 1000.05 999.44 999.01 998.78 998.73 998.81 998.95 999.08 999.13 999.06 998.87 998.57 998.23 997.93 997.77 997.81 998.12 998.71 999.57 1000.65 1001.84 1003.08 1004.27 1005.35 1006.27 1007.05 1007.69 1008.25 1008.78 1009.33 1009.94 1010.62 1011.35 1012.11 1012.85
1004.62 1004.69 1004.56 1004.20 1003.63 1002.87 1002.00 1001.09 1000.23 999.47 998.90 998.54 998.39 998.42 998.56 998.73 998.87 998.91 998.81 998.57 998.22 997.84 997.50 997.30 997.32 997.61 998.18 999.03 1000.09 1001.27 1002.49 1003.66 1004.74 1005.68 1006.47 1007.15 1007.76 1008.34 1008.95 1009.62 1010.34 1011.12 1011.92 1012.69
1004.14 1004.27 1004.20 1003.90 1003.38 1002.66 1001.82 1000.94 1000.09 999.36 998.80 998.44 998.28 998.29 998.40 998.53 998.61 998.58 998.42 998.13 997.74 997.33 996.99 996.80 996.83 997.13 997.71 998.56 999.61 1000.77 1001.98 1003.15 1004.22 1005.16 1005.98 1006.69 1007.34 1007.97 1008.63 1009.33 1010.09 1010.89 1011.71 1012.50
1003.68 1003.91 1003.97 1003.80 1003.40 1002.80 1002.05 1001.24 1000.43 999.71 999.13 998.72 998.49 998.39 998.38 998.39 998.36 998.23 997.99 997.65 997.24 996.83 996.51 996.35 996.42 996.75 997.36 998.22 999.26 1000.42 1001.61 1002.77 1003.83 1004.78 1005.61 1006.35 1007.03 1007.69 1008.37 1009.10 1009.87 1010.68 1011.49 1012.27
1003.40 1003.75 1003.95 1003.94 1003.71 1003.27 1002.65 1001.93 1001.17 1000.44 999.81 999.31 998.94 998.69 998.52 998.37 998.20 997.96 997.64 997.26 996.84 996.46 996.18 996.07 996.18 996.56 997.19 998.05 999.09 1000.23 1001.40 1002.54 1003.60 1004.54 1005.39 1006.14 1006.84 1007.52 1008.21 1008.93 1009.69 1010.47 1011.25 1011.99
1003.41 1003.86 1004.19 1004.35 1004.28 1003.99 1003.50 1002.86 1002.14 1001.40 1000.70 1000.08 999.57 999.15 998.80 998.49 998.17 997.83 997.45 997.04 996.63 996.28 996.05 995.99 996.15 996.55 997.19 998.05 999.07 1000.18 1001.32 1002.43 1003.48 1004.42 1005.27 1006.04 1006.74 1007.43 1008.11 1008.81 1009.53 1010.26 1010.98 1011.67
1003.76 1004.26 1004.69 1004.95 1005.01 1004.84 1004.45 1003.88 1003.17 1002.41 1001.63 1000.90 1000.25 999.67 999.17 998.72 998.29 997.87 997.45 997.03 996.65 996.34 996.15 996.13 996.32 996.72 997.35 998.17 999.15 1000.21 1001.31 1002.39 1003.42 1004.36 1005.21 1005.98 1006.70 1007.37 1008.04 1008.70 1009.37 1010.04 1010.69 1011.32
1004.41 1004.91 1005.36 1005.67 1005.79 1005.68 1005.34 1004.80 1004.10 1003.31 1002.47 1001.65 1000.89 1000.20 999.59 999.05 998.55 998.09 997.66 997.26 996.91 996.63 996.48 996.47 996.65 997.03 997.61 998.37 999.27 1000.27 1001.31 1002.35 1003.35 1004.29 1005.14 1005.92 1006.63 1007.30 1007.94 1008.56 1009.17 1009.78 1010.36 1010.93
1005.26 1005.70 1006.10 1006.39 1006.51 1006.40 1006.07 1005.53 1004.82 1004.00 1003.13 1002.26 1001.44 1000.69 1000.03 999.46 998.95 998.49 998.08 997.71 997.39 997.14 997.00 996.98 997.12 997.44 997.93 998.60 999.40 1000.31 1001.28 1002.26 1003.23 1004.15 1005.01 1005.79 1006.51 1007.17 1007.78 1008.37 1008.93 1009.47 1010.00 1010.50
1006.22 1006.54 1006.84 1007.04 1007.08 1006.93 1006.57 1006.01 1005.29 1004.47 1003.59 1002.71 1001.89 1001.15 1000.51 999.95 999.48 999.07 998.70 998.37 998.08 997.85 997.69 997.63 997.70 997.92 998.30 998.84 999.53 1000.33 1001.21 1002.13 1003.05 1003.95 1004.80 1005.58 1006.30 1006.95 1007.55 1008.10 1008.62 1009.11 1009.59 1010.06
1007.16 1007.33 1007.48 1007.56 1007.50 1007.27 1006.85 1006.27 1005.56 1004.75 1003.90 1003.08 1002.31 1001.63 1001.05 1000.57 1000.16 999.82 999.51 999.23 998.97 998.73 998.54 998.42 998.40 998.50 998.75 999.15 999.69 1000.37 1001.14 1001.98 1002.85 1003.72 1004.55 1005.32 1006.03 1006.67 1007.25 1007.78 1008.27 1008.73 1009.17 1009.61
1008.01 1008.02 1008.02 1007.95 1007.77 1007.46 1007.00 1006.41 1005.72 1004.96 1004.18 1003.44 1002.77 1002.19 1001.71 1001.33 1001.02 1000.75 1000.51 1000.28 1000.03 999.79 999.56 999.36 999.24 999.22 999.33 999.58 999.98 1000.53 1001.18 1001.93 1002.72 1003.53 1004.32 1005.07 1005.76 1006.39 1006.94 1007.45 1007.91 1008.34 1008.77 1009.19
1008.73 1008.60 1008.45 1008.25 1007.98 1007.60 1007.12 1006.54 1005.89 1005.21 1004.54 1003.91 1003.36 1002.90 1002.54 1002.26 1002.05 1001.87 1001.69 1001.49 1001.27 1001.01 1000.73 1000.47 1000.26 1000.12 1000.10 1000.21 1000.47 1000.88 1001.41 1002.05 1002.75 1003.48 1004.21 1004.91 1005.56 1006.15 1006.68 1007.16 1007.59 1008.01 1008.41 1008.82
1009.33 1009.08 1008.82 1008.53 1008.19 1007.78 1007.31 1006.77 1006.19 1005.61 1005.05 1004.54 1004.12 1003.79 1003.54 1003.37 1003.24 1003.13 1003.01 1002.84 1002.63 1002.36 1002.05 1001.74 1001.45 1001.22 1001.09 1001.08 1001.21 1001.48 1001.89 1002.40 1002.99 1003.62 1004.27 1004.90 1005.49 1006.02 1006.51 1006.95 1007.36 1007.75 1008.14 1008.54
1009.83 1009.51 1009.18 1008.84 1008.47 1008.07 1007.63 1007.16 1006.67 1006.20 1005.76 1005.37 1005.07 1004.84 1004.69 1004.59 1004.53 1004.47 1004.39 1004.25 1004.05 1003.78 1003.46 1003.12 1002.78 1002.49 1002.27 1002.16 1002.18 1002.33 1002.61 1002.99 1003.46 1003.97 1004.51 1005.04 1005.54 1006.01 1006.44 1006.84 1007.22 1007.58 1007.95 1008.33
1010.27 1009.91 1009.56 1009.21 1008.85 1008.49 1008.10 1007.72 1007.33 1006.96 1006.63 1006.35 1006.14 1005.99 1005.91 1005.86 1005.84 1005.81 1005.75 1005.63 1005.45 1005.19 1004.88 1004.53 1004.17 1003.84 1003.57 1003.38 1003.31 1003.35 1003.51 1003.76 1004.09 1004.47 1004.88 1005.30 1005.70 1006.09 1006.45 1006.80 1007.14 1007.48 1007.82 1008.18
1010.67 1010.31 1009.96 1009.64 1009.32 1009.01 1008.71 1008.41 1008.12 1007.85 1007.61 1007.41 1007.26 1007.16 1007.11 1007.09 1007.08 1007.06 1007.00 1006.90 1006.72 1006.49 1006.19 1005.85 1005.50 1005.16 1004.86 1004.63 1004.48 1004.43 1004.47 1004.59 1004.78 1005.03 1005.30 1005.60 1005.89 1006.19 1006.48 1006.77 1007.07 1007.38 1007.70 1008.03
1011.05 1010.70 1010.39 1010.10 1009.85 1009.61 1009.39 1009.17 1008.96 1008.77 1008.60 1008.45 1008.33 1008.25 1008.21 1008.18 1008.16 1008.13 1008.07 1007.97 1007.81 1007.59 1007.33 1007.02 1006.68 1006.35 1006.04 1005.77 1005.57 1005.43 1005.36 1005.36 1005.42 1005.53 1005.67 1005.84 1006.03 1006.24 1006.46 1006.69 1006.95 1007.22 1007.52 1007.82
1011.40 1011.09 1010.81 1010.58 1010.38 1010.21 1010.06 1009.91 1009.77 1009.64 1009.51 1009.38 1009.28 1009.20 1009.13 1009.08 1009.03 1008.98 1008.91 1008.80 1008.65 1008.46 1008.22 1007.94 1007.63 1007.32 1007.00 1006.71 1006.45 1006.24 1006.08 1005.97 1005.90 1005.89 1005.91 1005.96 1006.05 1006.17 1006.32 1006.50 1006.72 1006.96 1007.23 1007.50
1011.71 1011.43 1011.20 1011.02 1010.88 1010.76 1010.67 1010.58 1010.49 1010.39 1010.28 1010.17 1010.07 1009.97 1009.87 1009.79 1009.71 1009.63 1009.54 1009.42 1009.28 1009.10 1008.89 1008.63 1008.35 1008.04 1007.73 1007.41 1007.11 1006.83 1006.59 1006.38 1006.21 1006.07 1005.98 1005.94 1005.94 1005.98 1006.07 1006.20 1006.37 1006.58 1006.81 1007.06
1011.98 1011.74 1011.55 1011.41 1011.31 1011.24 1011.19 1011.14 1011.08 1011.01 1010.92 1010.82 1010.71 1010.59 1010.47 1010.36 1010.25 1010.14 1010.03 1009.91 1009.76 1009.59 1009.39 1009.15 1008.88 1008.57 1008.25 1007.91 1007.57 1007.23 1006.91 1006.62 1006.35 1006.13 1005.94 1005.81 1005.73 1005.70 1005.73 1005.81 1005.94 1006.11 1006.30 1006.51
1012.22 1012.01 1011.85 1011.74 1011.68 1011.64 1011.62 1011.60 1011.57 1011.52 1011.45 1011.35 1011.24 1011.11 1010.98 1010.85 1010.72 1010.60 1010.47 1010.34 1010.19 1010.02 1009.82 1009.59 1009.31 1009.01 1008.67 1008.30 1007.92 1007.53 1007.14 1006.77 1006.43 1006.13 1005.87 1005.66 1005.51 1005.42 1005.39 1005.42 1005.50 1005.61 1005.76 1005.92
1012.42 1012.24 1012.11 1012.03 1012.00 1011.99 1012.00 1012.00 1012.00 1011.97 1011.91 1011.83 1011.73 1011.61 1011.48 1011.34 1011.21 1011.08 1010.94 1010.80 1010.65 1010.48 1010.28 1010.04 1009.76 1009.44 1009.08 1008.68 1008.26 1007.82 1007.38 1006.95 1006.55 1006.17 1005.85 1005.58 1005.37 1005.22 1005.14 1005.11 1005.13 1005.19 1005.28 1005.38
1012.62 1012.47 1012.37 1012.31 1012.30 1012.32 1012.35 1012.38 1012.40 1012.40 1012.37 1012.31 1012.23 1012.13 1012.01 1011.89 1011.76 1011.64 1011.51 1011.37 1011.21 1011.03 1010.82 1010.58 1010.28 1009.94 1009.56 1009.13 1008.68 1008.20 1007.71 1007.23 1006.77 1006.35 1005.97 1005.65 1005.39 1005.18 1005.04 1004.96 1004.92 1004.92 1004.94 1004.98
1012.82 1012.71 1012.64 1012.61 1012.62 1012.66 1012.72 1012.77 1012.82 1012.85 1012.85 1012.82 1012.77 1012.70 1012.61 1012.51 1012.41 1012.29 1012.17 1012.04 1011.88 1011.70 1011.48 1011.22 1010.92 1010.56 1010.15 1009.70 1009.21 1008.69 1008.17 1007.65 1007.15 1006.68 1006.26 1005.89 1005.58 1005.33 1005.13 1004.99 1004.89 1004.83 1004.79 1004.76
1013.04 1012.97 1012.94 1012.95 1012.99 1013.05 1013.13 1013.21 1013.29 1013.34 1013.37 1013.38 1013.37 1013.33 1013.27 1013.20 1013.12 1013.02 1012.91 1012.78 1012.63 1012.45 1012.23 1011.96 1011.64 1011.26 1010.83 1010.36 1009.84 1009.30 1008.74 1008.19 1007.65 1007.15 1006.69 1006.28 1005.93 1005.63 1005.39 1005.19 1005.04 1004.92 1004.82 1004.73
1013.28 1013.27 1013.28 1013.33 1013.40 1013.49 1013.60 1013.70 1013.80 1013.88 1013.94 1013.98 1013.99 1013.98 1013.95 1013.90 1013.84 1013.76 1013.66 1013.54 1013.39 1013.21 1012.98 1012.70 1012.37 1011.99 1011.54 1011.05 1010.51 1009.95 1009.37 1008.79 1008.22 1007.68 1007.19 1006.74 1006.35 1006.01 1005.73 1005.49 1005.30 1005.13 1004.99 1004.85
Thickness
5726 5736 5740 5740 5744 5750 5748 5747 5742 5746 5744 5746 5753 5752 5751 5748 5746 5742 5739 5736 5733 5730 5727 5725 5725 5724 5723 5722 5721 5719 5717 5715 5713 5712 5711 5710 5709 5708 5707 5705 5704 5702 5701 5699
5715 5729 5733 5733 5741 5746 5746 5747 5746 5745 5739 5751 5753 5749 5744 5740 5737 5734 5731 5729 5727 5724 5721 5718 5719 5718 5718 5716 5715 5714 5712 5711 5710 5708 5707 5706 5704 5703 5702 5701 5700 5698 5696 5694
5703 5719 5723 5717 5732 5737 5740 5742 5741 5732 5736 5747 5740 5737 5735 5733 5732 5730 5727 5723 5720 5717 5713 5711 5712 5713 5711 5711 5711 5708 5707 5706 5705 5704 5702 5701 5701 5698 5696 5695 5694 5692 5690 5689
5699 5701 5688 5717 5744 5743 5736 5737 5742 5738 5737 5739 5734 5733 5732 5732 5727 5724 5722 5718 5715 5712 5709 5707 5707 5708 5707 5706 5705 5704 5702 5701 5700 5699 5698 5697 5695 5693 5691 5690 5688 5686 5685 5684
5691 5688 5695 5717 5732 5732 5724 5721 5734 5731 5730 5729 5731 5726 5721 5724 5722 5719 5717 5713 5710 5708 5705 5703 5701 5701 5700 5700 5700 5698 5697 5696 5695 5695 5693 5691 5689 5687 5686 5685 5683 5681 5679 5678
5686 5681 5679 5700 5723 5733 5722 5704 5722 5722 5717 5718 5718 5705 5705 5715 5715 5713 5711 5707 5705 5703 5700 5697 5695 5695 5693 5693 5692 5692 5692 5691 5691 5690 5688 5686 5684 5683 5681 5680 5678 5677 5675 5673
5677 5675 5684 5702 5719 5722 5696 5692 5711 5713 5711 5710 5706 5705 5707 5708 5706 5704 5701 5700 5698 5696 5693 5690 5690 5689 5687 5686 5686 5687 5688 5687 5686 5684 5682 5681 5679 5678 5676 5675 5673 5672 5670 5669
5674 5668 5670 5697 5704 5693 5689 5701 5704 5704 5703 5701 5700 5701 5699 5698 5696 5694 5692 5691 5690 5687 5685 5684 5684 5683 5680 5679 5681 5682 5682 5680 5679 5678 5678 5677 5673 5671 5671 5669 5667 5666 5665 5664
5668 5666 5676 5686 5686 5689 5692 5691 5693 5695 5695 5694 5690 5689 5688 5687 5686 5685 5684 5683 5683 5681 5679 5678 5678 5677 5674 5674 5676 5676 5674 5673 5672 5672 5671 5670 5667 5665 5664 5663 5662 5661 5661 5659
5657 5660 5670 5674 5677 5680 5681 5682 5686 5687 5686 5686 5682 5681 5680 5678 5677 5677 5677 5676 5675 5675 5672 5671 5672 5671 5670 5670 5670 5669 5667 5666 5665 5664 5663 5662 5661 5660 5658 5657 5656 5656 5655 5654
5648 5653 5658 5663 5667 5669 5671 5674 5677 5676 5678 5676 5674 5672 5671 5670 5670 5669 5669 5669 5668 5667 5666 5665 5665 5665 5664 5664 5663 5661 5659 5658 5658 5658 5657 5655 5654 5653 5653 5652 5651 5650 5650 5649
5639 5647 5649 5651 5659 5663 5662 5663 5666 5667 5668 5668 5665 5663 5663 5662 5662 5662 5661 5661 5659 5659 5659 5658 5658 5657 5657 5657 5656 5654 5652 5651 5651 5651 5650 5649 5648 5646 5644 5644 5643 5643 5642 5641
5640 5645 5649 5651 5653 5656 5656 5658 5660 5661 5660 5659 5658 5657 5656 5655 5654 5653 5652 5652 5651 5652 5652 5651 5650 5649 5649 5649 5648 5647 5646 5645 5646 5645 5644 5644 5643 5641 5638 5635 5634 5634 5633 5632
5638 5639 5639 5643 5644 5648 5650 5652 5654 5653 5652 5651 5650 5650 5649 5647 5647 5645 5644 5645 5646 5645 5645 5644 5642 5641 5642 5642 5641 5640 5640 5639 5639 5639 5639 5639 5638 5637 5636 5634 5631 5629 5626 5624
5629 5632 5633 5636 5638 5640 5642 5643 5643 5642 5641 5641 5642 5641 5640 5639 5638 5637 5638 5638 5638 5636 5636 5636 5634 5633 5635 5635 5634 5633 5634 5634 5633 5633 5634 5635 5634 5634 5633 5631 5629 5627 5624 5619
5621 5624 5626 5627 5628 5630 5631 5632 5631 5632 5632 5632 5632 5632 5632 5632 5630 5630 5630 5629 5627 5626 5627 5627 5626 5627 5628 5628 5627 5627 5628 5627 5627 5627 5628 5629 5629 5628 5627 5626 5624 5623 5621 5619
5611 5612 5614 5617 5619 5621 5621 5622 5623 5625 5625 5624 5624 5624 5623 5622 5621 5620 5620 5620 5619 5619 5620 5619 5619 5619 5621 5621 5621 5622 5623 5622 5620 5622 5624 5624 5624 5623 5622 5621 5621 5620 5619 5617
5608 5609 5611 5612 5613 5614 5615 5616 5618 5618 5617 5617 5617 5616 5614 5613 5612 5611 5612 5612 5612 5612 5612 5612 5611 5612 5614 5615 5615 5616 5617 5618 5617 5617 5618 5618 5617 5618 5617 5617 5616 5615 5614 5612
5604 5605 5607 5609 5610 5609 5609 5609 5610 5610 5610 5610 5609 5607 5606 5605 5605 5605 5605 5604 5604 5603 5604 5606 5605 5607 5607 5608 5608 5610 5613 5614 5614 5613 5613 5612 5613 5613 5612 5611 5610 5610 5609 5607
5599 5601 5603 5604 5605 5604 5603 5603 5603 5603 5603 5603 5602 5600 5598 5597 5598 5598 5597 5597 5597 5598 5599 5600 5600 5601 5602 5602 5601 5605 5608 5609 5609 5609 5609 5609 5608 5607 5607 5606 5605 5604 5604 5602
5593 5595 5597 5598 5598 5598 5598 5597 5597 5596 5596 5596 5594 5593 5591 5591 5591 5591 5590 5590 5591 5592 5593 5593 5594 5595 5596 5595 5595 5600 5602 5603 5603 5604 5603 5603 5603 5602 5602 5601 5600 5599 5598 5597
5587 5589 5590 5592 5592 5591 5591 5591 5590 5589 5588 5588 5588 5587 5587 5586 5586 5585 5584 5585 5586 5585 5587 5589 5590 5588 5589 5590 5593 5595 5597 5598 5598 5598 5598 5597 5597 5596 5596 5595 5594 5593 5591 5590
5582 5583 5584 5585 5586 5586 5586 5585 5584 5584 5583 5582 5581 5580 5580 5580 5580 5579 5578 5580 5581 5579 5581 5583 5582 5582 5582 5585 5588 5590 5591 5591 5592 5592 5592 5591 5591 5590 5589 5588 5587 5586 5584 5583
5576 5577 5578 5579 5580 5580 5579 5580 5580 5579 5579 5579 5578 5577 5576 5576 5576 5576 5576 5574 5574 5573 5576 5575 5575 5576 5575 5579 5581 5582 5583 5584 5585 5585 5585 5584 5584 5583 5582 5581 5580 5580 5578 5577
5569 5571 5572 5572 5573 5573 5574 5574 5574 5574 5573 5573 5573 5572 5572 5572 5571 5572 5571 5570 5568 5569 5571 5570 5570 5570 5572 5574 5574 5575 5575 5575 5576 5576 5575 5575 5575 5575 5574 5573 5573 5572 5570 5569
5564 5565 5566 5567 5567 5568 5569 5569 5569 5567 5567 5566 5565 5566 5567 5567 5566 5566 5566 5566 5566 5565 5567 5567 5567 5566 5568 5568 5569 5569 5568 5568 5568 5568 5567 5567 5566 5565 5565 5564 5563 5562 5561 5560
5560 5561 5561 5563 5563 5564 5564 5563 5562 5562 5561 5559 5559 5560 5561 5561 5561 5560 5561 5561 5561 5561 5561 5561 5562 5562 5562 5563 5563 5563 5562 5561 5560 5559 5558 5557 5556 5555 5555 5555 5554 5553 5551 5550